STARLINK-32727, 62828

Orbit data source: Space-Track

STARLINK-32727, 62828 is a payload satellite owned by SpaceX/Seattle (US) in LEO that was launched on Fri, 24 Jan 2025 UTC via an FALCON 9 launch vehicle from the Air Force Western Test Range (AFWTR). Payload-class satellites include a variety of spacecraft equipped with specific instruments for various scientific and technological missions. These include communications satellites like Starlink; space stations such as the ISS; scientific satellites like the Hubble; Earth observation satellites from companies like Planet Labs, Umbra, and HawkEye 360; GPS; miniature CubeSats for education and research; and military/defense satellites.

Loading next visibility...
Identifier
62828, 2025-018Y
Orbit
LEO
Last TLE update
23 hours ago
Origin
Manufacturer
SpaceX/Seattle
Mission
Operational Commercial Communications
Bus & Motor
STARLINK V2M, Unknown motor
Mass
730 kg wet, ~700 kg dry
Launch date (UTC)
2025-01-24 (5 months ago)
Launch vehicle
FALCON 9
Launch site
Air Force Western Test Range (AFWTR)
Object type
Payload
Rocket body
Debris
Shape & HBR
Box + 2 Pan, 29 m
Radar Cross Section
33.884 m², Large (>1 m²)

Expand to show TLE details & history

TLE from 23 hours ago
0 STARLINK-32727
1 62828U 25018Y   25185.77760688  .00023817  00000-0  60322-3 0  9999
2 62828  53.1593  18.8751 0000701 116.3997 243.7080 15.39636504 26192
Epoch: 2025-07-04T18:39Z
TLE epoch observation values (Epoch: 2025-07-04T18:39:45.234Z)
Latitude
-0.00001°
Longitude
175.91149°
Altitude
448.299 km
Speed
7.644 km/s
True Right ascension
01h 15m 30s
True Declination
0° 00' 00"
Sunlit
Object was in daylight at epoch
Visualization orbit readout
Latitude
-44.00406°
Longitude
37.44495°
Altitude
462.106 km
Speed
7.635 km/s
Apparent Right ascension
16h 43m 42s
Apparent Declination
-42° 19' 60"
Sunlit
Object is in full shadow
Visualization observer readout
Local Sidereal Time
05:26:01
Azimuth
110.31° ESE
Elevation
-81.678°
Doppler factor
1
Orbital elements
Apogee altitude
447.919 km
Perigee altitude
446.962 km
Semi-major axis
6,825.578 km
Eccentricity
0.00007
Inclination
53.1593°
RAAN
18.8751°
Arg. of periapsis
116.3997°
True anomaly
Unknown
Mean anomaly
243.708°
Eccentric anomaly
Unknown
Mean motion
3.84888 °/min
Orbital period
93.53 mins
BSTAR
0.00060322
Loading maneuver chart data...
Loading SW <> Apogee altitude chart data...
Loading historical data...
Loading historical data...
Loading historical data...
Loading historical data...
Loading historical data...
Loading historical data...
Loading historical data...

STARLINK-32727 Visibility forecast

Observer location: undefined°, undefined°

Span
Click to sort rows by Start time (UTC) header in descending order
Start Az.
Max El. time (UTC)
Max El. Az.
Max El.
End time (UTC)
End Az.
4 mins2025-07-05 21:38:39.104Z347.292° N2025-07-05 21:39:39.104Z19.33° NNE30.256°2025-07-05 21:42:39.104Z97.9° ESE
4 mins2025-07-05 23:15:39.104Z266.317° W2025-07-05 23:16:39.104Z242.778° WSW21.965°2025-07-05 23:19:39.104Z176.693° S
4 mins2025-07-06 14:27:39.104Z172.638° S2025-07-06 14:28:39.104Z146.651° SSE25.057°2025-07-06 14:31:39.104Z75.038° E
4 mins2025-07-06 16:04:39.104Z279.82° WNW2025-07-06 16:06:39.104Z341.056° N27.656°2025-07-06 16:08:39.104Z26.413° NE
|